Weather History for Grand Marais, MN

Change the Weather History Date:

Tuesday, January 8, 2013

  Actual Average (KCKC) Record (KCKC)
Temperature  
Mean Temperature 32 °F -  
Max Temperature 39 °F 14 °F 42 °F (2003)
Min Temperature 25 °F 1 °F -18 °F (2014)
Degree Days  
Heating Degree Days 33    
Moisture  
Dew Point 26 °F    
Average Humidity 72    
Maximum Humidity 82    
Minimum Humidity 66    
Precipitation  
Precipitation 0.00 in - - ()
Sea Level Pressure  
Sea Level Pressure 29.87 in    
Wind  
Wind Speed 6 mph (WSW)    
Max Wind Speed 25 mph    
Max Gust Speed 33 mph    
Averages and records for this station are not official NWS values.
T = Trace of Precipitation, MM = Missing Value Source: NWS Daily Summary

Daily Weather History Graph

Daily Weather History Graph

Search for Another Location

Airport:

Trip Planner

Search our weather history database for the weather conditions in past years. The results will help you decide how hot, cold, wet, or windy it might be!

Date:

Astronomy

Jan. 08, 2013 Rise Set
Actual Time 7:48 AM CST 4:28 PM CST
Civil Twilight 7:13 AM CST 5:03 PM CST
Nautical Twilight 6:34 AM CST 5:42 PM CST
Astronomical Twilight 5:57 AM CST 6:19 PM CST
Moon 4:20 AM CST (1/8) 1:31 PM CST (1/8)
Length of Visible Light 9h 50m
Length of Day
8h 39m
Waning Crescent, 13% of the Moon is Illuminated
Jan 8
Waning Crescent
Jan 11
New
Jan 18
First Quarter
Jan 26
Full
Feb 3
Last Quarter

Hourly Weather History & Observations

Time (CST) Temp. Windchill Dew Point Humidity Pressure Visibility Wind Dir Wind Speed Gust Speed Precip Events Conditions
12:56 AM 34.0 °F 28.8 °F 24.1 °F 67% 29.88 in - West 5.8 mph - N/A   Unknown
1:56 AM 30.9 °F - 21.0 °F 67% 29.90 in - Calm Calm - N/A   Unknown
2:56 AM 28.9 °F 25.2 °F 19.9 °F 69% 29.93 in - WNW 3.5 mph - N/A   Unknown
3:56 AM 32.0 °F 27.5 °F 21.9 °F 66% 29.94 in - West 4.6 mph - N/A   Unknown
4:56 AM 30.9 °F 27.5 °F 21.0 °F 67% 29.95 in - WNW 3.5 mph - N/A   Unknown
5:56 AM 28.9 °F - 21.0 °F 72% 29.96 in - Calm Calm - N/A   Unknown
6:56 AM 27.0 °F 23.0 °F 19.0 °F 72% 29.97 in - NW 3.5 mph - N/A   Unknown
7:56 AM 25.0 °F 20.7 °F 19.0 °F 78% 30.00 in - NW 3.5 mph - N/A   Unknown
8:56 AM 30.9 °F 27.5 °F 21.0 °F 67% 30.01 in - NW 3.5 mph - N/A   Unknown
9:56 AM 34.0 °F 31.0 °F 24.1 °F 67% 30.00 in - SW 3.5 mph - N/A   Unknown
10:56 AM 34.0 °F 28.0 °F 25.0 °F 70% 30.01 in - SSW 6.9 mph - N/A   Unknown
11:56 AM 35.1 °F 29.3 °F 26.1 °F 70% 29.99 in - SW 6.9 mph - N/A   Unknown
12:56 PM 35.1 °F - 26.1 °F 70% 29.95 in - Calm Calm - N/A   Unknown
1:56 PM 35.1 °F 32.2 °F 28.0 °F 76% 29.94 in - Variable 3.5 mph - N/A   Unknown
2:56 PM 35.1 °F 28.6 °F 27.0 °F 72% 29.92 in - East 8.1 mph - N/A   Unknown
3:56 PM 35.1 °F 26.4 °F 28.0 °F 76% 29.89 in - East 12.7 mph - N/A   Unknown
4:56 PM 35.1 °F 25.2 °F 30.0 °F 82% 29.85 in - East 16.1 mph - N/A   Unknown
5:56 PM 35.1 °F 27.4 °F 28.9 °F 78% 29.80 in - NE 10.4 mph 19.6 mph N/A   Unknown
6:56 PM 36.0 °F 28.5 °F 30.0 °F 79% 29.75 in - ENE 10.4 mph - N/A   Unknown
7:56 PM 39.0 °F 34.8 °F 32.0 °F 76% 29.72 in - SE 5.8 mph - N/A   Unknown
8:56 PM 39.9 °F 29.5 °F 30.0 °F 68% 29.67 in - SSW 24.2 mph - N/A   Unknown
9:56 PM 39.0 °F 28.0 °F 30.9 °F 73% 29.65 in - SW 25.3 mph - N/A   Unknown
10:56 PM 37.9 °F 27.9 °F 30.9 °F 76% 29.65 in - WSW 19.6 mph 33.4 mph N/A   Unknown
11:56 PM 37.0 °F 27.7 °F 30.9 °F 79% 29.65 in - WSW 16.1 mph 24.2 mph N/A   Unknown